Location: Newark
(27.9675°N, 86.8869°E)
Time: 21:12:24
(UTC+00:00)

deb Explorer IX - Pass Details

Date: 29 October 2019
Orbit: 546 x 1105 km, 38.8° (Epoch: 17 November)

Event Time Altitude Azimuth Distance (km) Brightness Sun altitude
Rises 01:15:06 0° 203° (SSW) 2,731 ? 10.5°
Reaches altitude 10° 01:17:57 10° 184° (S) 1,807 ? 11.1°
Maximum altitude 01:20:43 18° 141° (SE) 1,377 ? 11.6°
Drops below altitude 10° 01:23:31 10° 97° (E) 1,813 ? 12.2°
Sets 01:26:22 0° 78° (ENE) 2,745 ? 12.8°
